Location: Shandelee
(41.8790°N, 74.8713°W)
Time: 04:23:43
(UTC+00:00)

Cosmos 1606 Rocket - Pass Details

Date: 29 October 2020
Orbit: 604 x 631 km, 82.5° (Epoch: 23 November)

Event Time Altitude Azimuth Distance (km) Brightness Sun altitude
Rises 22:29:19 0° 192° (SSW) 2,861 7.3 -6.7°
Reaches altitude 10° 22:31:31 10° 194° (SSW) 1,966 6.5 -7.1°
Maximum altitude 22:35:51 70° 279° (W) 658 3.9 -7.9°
Drops below altitude 10° 22:40:17 10° 3° (N) 1,999 6.0 -8.7°
Sets 22:42:32 0° 6° (N) 2,914 6.8 -9.1°
